QPF
0.07 0.08 0.05 0.03 0.02 0.01 0.01 0.01 0.06 0.17 0.22 0.25 0.16 0.08 0.05 0.04 0.03 0.02 0.02 0.02 0.01 0.01 0.01 0.01 0.01 0.01 0.01 0.01 0.01 0.01 0.01 0.01 0.02 0.02 0.02 0.02 0.03 0.03 0.04 0.04 0.04 0.04 0.04 0.04
0.03 0.02 0.02 0.02 0.01 0.01 0.02 0.02 0.07 0.13 0.18 0.23 0.18 0.10 0.07 0.06 0.05 0.04 0.03 0.02 0.02 0.01 0.02 0.02 0.01 0.01 0.01 0.01 0.01 0.01 0.01 0.02 0.02 0.02 0.02 0.02 0.03 0.03 0.04 0.04 0.03 0.02 0.02 0.02
0.05 0.01 0.03 0.07 0.03 0.02 0.02 0.03 0.06 0.11 0.13 0.12 0.10 0.10 0.09 0.10 0.09 0.08 0.07 0.06 0.04 0.03 0.03 0.03 0.03 0.02 0.02 0.02 0.01 0.01 0.01 0.01 0.02 0.01 0.01 0.01 0.02 0.02 0.02 0.02 0.02 0.01 0.01 0.01
0.04 0.05 0.10 0.08 0.01 0.01 0.02 0.03 0.04 0.06 0.08 0.10 0.08 0.10 0.12 0.12 0.10 0.09 0.08 0.07 0.06 0.05 0.03 0.03 0.02 0.02 0.02 0.02 0.01 0.01 0.01 0.01 0.01 0.01 0.01 0.01 0.02 0.02 0.02 0.02 0.01 0.01 0.01 0.01
0.03 0.08 0.10 0.06 0.02 0.01 0.05 0.07 0.05 0.05 0.03 0.04 0.05 0.06 0.10 0.12 0.10 0.09 0.08 0.07 0.06 0.05 0.04 0.03 0.03 0.02 0.02 0.02 0.02 0.02 0.01 0.01 0.01 0.01 0.01 0.01 0.02 0.02 0.02 0.02 0.02 0.02 0.02 0.02
0.01 0.06 0.10 0.08 0.02 0.00 0.04 0.11 0.08 0.05 0.03 0.05 0.07 0.09 0.08 0.09 0.09 0.09 0.08 0.08 0.07 0.06 0.05 0.04 0.04 0.03 0.03 0.02 0.02 0.01 0.01 0.01 0.01 0.01 0.01 0.01 0.01 0.02 0.02 0.02 0.02 0.02 0.02 0.03
0.01 0.04 0.07 0.02 0.00 0.02 0.09 0.13 0.08 0.05 0.07 0.10 0.15 0.14 0.08 0.08 0.09 0.10 0.10 0.09 0.08 0.08 0.07 0.05 0.04 0.03 0.03 0.02 0.01 0.01 0.01 0.01 0.01 0.01 0.00 0.01 0.01 0.01 0.02 0.02 0.03 0.03 0.04 0.04
0.01 0.05 0.05 0.00 0.01 0.03 0.06 0.04 0.04 0.05 0.08 0.09 0.07 0.05 0.05 0.07 0.09 0.10 0.09 0.08 0.07 0.06 0.05 0.04 0.03 0.03 0.02 0.02 0.01 0.01 0.01 0.01 0.01 0.00 0.00 0.01 0.01 0.02 0.02 0.02 0.03 0.04 0.05 0.05
0.01 0.03 0.01 0.00 0.00 0.01 0.01 0.02 0.03 0.04 0.04 0.04 0.04 0.03 0.02 0.04 0.05 0.06 0.05 0.05 0.04 0.03 0.03 0.03 0.03 0.03 0.02 0.02 0.01 0.01 0.01 0.00 0.00 0.01 0.01 0.01 0.01 0.02 0.03 0.03 0.03 0.02 0.03 0.04
0.00 0.00 0.00 0.00 0.00 0.01 0.01 0.02 0.02 0.02 0.02 0.02 0.03 0.04 0.03 0.03 0.03 0.04 0.04 0.04 0.03 0.03 0.03 0.03 0.03 0.03 0.03 0.02 0.01 0.01 0.01 0.00 0.00 0.01 0.01 0.01 0.02 0.01 0.01 0.02 0.02 0.02 0.02 0.03
0.01 0.00 0.00 0.01 0.01 0.00 0.01 0.01 0.01 0.01 0.01 0.01 0.01 0.02 0.03 0.03 0.03 0.03 0.04 0.03 0.03 0.03 0.03 0.02 0.02 0.01 0.01 0.01 0.00 0.01 0.01 0.01 0.00 0.01 0.01 0.02 0.02 0.01 0.00 0.01 0.00 0.00 0.01 0.01
0.01 0.00 0.00 0.01 0.00 0.00 0.00 0.00 0.00 0.00 0.01 0.01 0.01 0.01 0.02 0.02 0.03 0.03 0.02 0.02 0.02 0.02 0.01 0.01 0.01 0.02 0.01 0.01 0.00 0.01 0.01 0.01 0.00 0.00 0.01 0.01 0.02 0.02 0.00 0.00 0.00 0.00 0.00 0.00
0.00 0.00 0.00 0.00 0.00 0.00 0.00 0.00 0.00 0.01 0.01 0.01 0.01 0.01 0.01 0.02 0.01 0.01 0.01 0.01 0.02 0.01 0.00 0.00 0.01 0.01 0.01 0.01 0.01 0.02 0.01 0.01 0.00 0.00 0.01 0.01 0.02 0.03 0.03 0.01 0.00 0.00 0.00 0.00
0.00 0.00 0.00 0.00 0.00 0.00 0.00 0.00 0.01 0.01 0.01 0.01 0.01 0.01 0.01 0.01 0.01 0.01 0.01 0.00 0.00 0.00 0.00 0.01 0.01 0.01 0.00 0.00 0.01 0.01 0.01 0.00 0.00 0.00 0.00 0.01 0.01 0.01 0.02 0.03 0.04 0.02 0.00 0.00
0.00 0.00 0.00 0.00 0.00 0.00 0.00 0.00 0.00 0.01 0.01 0.01 0.01 0.01 0.00 0.00 0.00 0.00 0.00 0.00 0.00 0.00 0.00 0.00 0.00 0.00 0.00 0.00 0.00 0.00 0.00 0.00 0.00 0.00 0.00 0.00 0.00 0.01 0.01 0.01 0.03 0.04 0.03 0.01
0.00 0.00 0.00 0.00 0.00 0.00 0.00 0.00 0.01 0.01 0.00 0.00 0.00 0.00 0.00 0.00 0.00 0.00 0.00 0.00 0.00 0.00 0.00 0.00 0.00 0.00 0.00 0.00 0.00 0.00 0.00 0.00 0.00 0.00 0.00 0.00 0.00 0.00 0.00 0.00 0.01 0.02 0.02 0.01
0.00 0.00 0.00 0.00 0.00 0.00 0.00 0.00 0.00 0.00 0.00 0.00 0.00 0.00 0.00 0.00 0.00 0.00 0.00 0.00 0.00 0.00 0.00 0.00 0.00 0.00 0.00 0.00 0.00 0.00 0.00 0.00 0.00 0.00 0.00 0.00 0.00 0.00 0.00 0.00 0.01 0.01 0.00 0.00
0.00 0.00 0.00 0.00 0.00 0.00 0.00 0.00 0.00 0.00 0.00 0.00 0.00 0.00 0.00 0.00 0.00 0.00 0.00 0.00 0.00 0.00 0.00 0.00 0.00 0.00 0.00 0.00 0.00 0.00 0.00 0.00 0.00 0.00 0.00 0.00 0.00 0.00 0.00 0.00 0.00 0.01 0.01 0.00
0.00 0.00 0.00 0.00 0.00 0.00 0.00 0.00 0.00 0.00 0.00 0.00 0.00 0.00 0.00 0.00 0.00 0.00 0.00 0.00 0.00 0.00 0.00 0.00 0.00 0.00 0.00 0.00 0.00 0.00 0.00 0.00 0.00 0.00 0.00 0.00 0.00 0.00 0.00 0.00 0.00 0.01 0.01 0.02
0.00 0.00 0.00 0.00 0.00 0.00 0.00 0.00 0.00 0.00 0.00 0.00 0.00 0.00 0.00 0.00 0.00 0.00 0.00 0.00 0.00 0.00 0.00 0.00 0.00 0.00 0.00 0.00 0.00 0.00 0.00 0.00 0.00 0.00 0.00 0.00 0.00 0.00 0.00 0.00 0.00 0.00 0.01 0.02
0.00 0.00 0.00 0.00 0.00 0.00 0.00 0.00 0.00 0.00 0.00 0.00 0.00 0.00 0.00 0.00 0.00 0.00 0.00 0.00 0.00 0.00 0.00 0.00 0.00 0.00 0.00 0.00 0.00 0.00 0.00 0.00 0.00 0.00 0.00 0.00 0.00 0.00 0.00 0.00 0.00 0.00 0.01 0.02
0.00 0.00 0.00 0.00 0.00 0.00 0.00 0.00 0.00 0.00 0.00 0.00 0.00 0.00 0.00 0.00 0.00 0.00 0.00 0.00 0.00 0.00 0.00 0.00 0.00 0.00 0.00 0.00 0.00 0.00 0.00 0.00 0.00 0.00 0.00 0.00 0.00 0.00 0.00 0.00 0.00 0.01 0.01 0.01
0.00 0.00 0.00 0.00 0.00 0.00 0.00 0.00 0.00 0.00 0.00 0.00 0.00 0.00 0.00 0.00 0.00 0.00 0.00 0.00 0.00 0.00 0.00 0.00 0.00 0.00 0.00 0.00 0.00 0.00 0.00 0.00 0.00 0.00 0.00 0.00 0.00 0.00 0.00 0.00 0.00 0.00 0.01 0.01
0.00 0.00 0.00 0.00 0.00 0.00 0.00 0.00 0.00 0.00 0.00 0.00 0.00 0.00 0.00 0.00 0.00 0.00 0.00 0.00 0.00 0.00 0.00 0.00 0.00 0.00 0.00 0.00 0.00 0.00 0.00 0.00 0.00 0.00 0.00 0.00 0.00 0.00 0.00 0.00 0.00 0.00 0.00 0.00
0.00 0.00 0.00 0.00 0.00 0.00 0.00 0.00 0.00 0.00 0.00 0.00 0.00 0.00 0.00 0.00 0.00 0.00 0.00 0.00 0.00 0.00 0.00 0.00 0.00 0.00 0.00 0.00 0.00 0.00 0.00 0.00 0.00 0.00 0.00 0.00 0.00 0.00 0.00 0.00 0.00 0.00 0.00 0.00
0.00 0.00 0.00 0.00 0.00 0.00 0.00 0.00 0.00 0.00 0.00 0.00 0.00 0.00 0.00 0.00 0.00 0.00 0.00 0.00 0.00 0.00 0.00 0.00 0.00 0.00 0.00 0.00 0.00 0.00 0.00 0.00 0.00 0.00 0.00 0.00 0.00 0.00 0.00 0.00 0.00 0.00 0.00 0.00
0.00 0.00 0.00 0.00 0.00 0.00 0.00 0.00 0.00 0.00 0.00 0.00 0.00 0.00 0.00 0.00 0.00 0.00 0.00 0.00 0.00 0.00 0.00 0.00 0.00 0.00 0.00 0.00 0.00 0.00 0.00 0.00 0.00 0.00 0.00 0.00 0.00 0.00 0.00 0.00 0.00 0.00 0.00 0.00
MSLP
1009.30 1008.83 1008.37 1008.07 1008.04 1008.36 1009.06 1010.12 1011.46 1012.98 1014.56 1016.06 1017.39 1018.48 1019.29 1019.86 1020.21 1020.42 1020.55 1020.66 1020.80 1020.99 1021.23 1021.52 1021.82 1022.12 1022.38 1022.60 1022.77 1022.89 1022.98 1023.05 1023.12 1023.18 1023.27 1023.36 1023.47 1023.59 1023.71 1023.82 1023.93 1024.02 1024.08 1024.11
1009.52 1009.28 1009.02 1008.87 1008.93 1009.28 1009.97 1010.99 1012.28 1013.74 1015.28 1016.77 1018.12 1019.23 1020.09 1020.70 1021.08 1021.29 1021.40 1021.47 1021.54 1021.66 1021.82 1022.03 1022.27 1022.52 1022.75 1022.95 1023.12 1023.24 1023.33 1023.40 1023.45 1023.50 1023.56 1023.62 1023.69 1023.76 1023.83 1023.91 1023.97 1024.03 1024.07 1024.10
1009.86 1009.82 1009.75 1009.75 1009.89 1010.28 1010.94 1011.88 1013.07 1014.44 1015.89 1017.32 1018.62 1019.74 1020.61 1021.24 1021.65 1021.88 1021.99 1022.04 1022.07 1022.13 1022.22 1022.37 1022.55 1022.74 1022.94 1023.12 1023.28 1023.40 1023.49 1023.55 1023.60 1023.64 1023.68 1023.71 1023.75 1023.79 1023.83 1023.87 1023.91 1023.95 1023.99 1024.02
1010.27 1010.41 1010.50 1010.61 1010.83 1011.21 1011.82 1012.67 1013.73 1014.96 1016.28 1017.60 1018.84 1019.91 1020.78 1021.43 1021.87 1022.13 1022.27 1022.32 1022.34 1022.37 1022.44 1022.54 1022.68 1022.84 1023.01 1023.18 1023.33 1023.45 1023.55 1023.61 1023.66 1023.69 1023.71 1023.72 1023.73 1023.74 1023.75 1023.77 1023.80 1023.84 1023.88 1023.93
1010.68 1010.95 1011.16 1011.37 1011.63 1012.00 1012.55 1013.28 1014.20 1015.27 1016.44 1017.63 1018.77 1019.78 1020.63 1021.29 1021.77 1022.08 1022.25 1022.34 1022.39 1022.44 1022.50 1022.60 1022.73 1022.88 1023.05 1023.21 1023.37 1023.50 1023.60 1023.67 1023.72 1023.74 1023.74 1023.73 1023.72 1023.70 1023.69 1023.69 1023.71 1023.75 1023.81 1023.88
1011.02 1011.39 1011.69 1011.96 1012.24 1012.60 1013.08 1013.71 1014.49 1015.40 1016.42 1017.47 1018.50 1019.45 1020.28 1020.95 1021.46 1021.82 1022.06 1022.21 1022.32 1022.40 1022.50 1022.62 1022.76 1022.93 1023.11 1023.29 1023.46 1023.60 1023.72 1023.79 1023.84 1023.85 1023.84 1023.81 1023.77 1023.74 1023.71 1023.70 1023.72 1023.77 1023.84 1023.93
1011.24 1011.66 1012.03 1012.35 1012.66 1013.01 1013.44 1013.98 1014.65 1015.44 1016.32 1017.25 1018.19 1019.08 1019.87 1020.55 1021.10 1021.52 1021.83 1022.05 1022.22 1022.36 1022.51 1022.67 1022.84 1023.04 1023.24 1023.44 1023.63 1023.79 1023.91 1024.00 1024.04 1024.05 1024.03 1023.99 1023.94 1023.89 1023.86 1023.85 1023.87 1023.92 1024.00 1024.11
1011.31 1011.78 1012.19 1012.56 1012.91 1013.27 1013.69 1014.19 1014.78 1015.48 1016.26 1017.11 1017.97 1018.80 1019.58 1020.26 1020.83 1021.30 1021.67 1021.96 1022.19 1022.39 1022.59 1022.78 1022.99 1023.21 1023.44 1023.66 1023.86 1024.04 1024.17 1024.27 1024.31 1024.32 1024.30 1024.26 1024.21 1024.16 1024.13 1024.13 1024.16 1024.22 1024.31 1024.43
1011.25 1011.76 1012.22 1012.65 1013.05 1013.46 1013.90 1014.39 1014.96 1015.62 1016.35 1017.13 1017.94 1018.73 1019.48 1020.16 1020.75 1021.25 1021.66 1021.99 1022.27 1022.51 1022.74 1022.96 1023.19 1023.43 1023.67 1023.90 1024.11 1024.29 1024.43 1024.53 1024.59 1024.61 1024.60 1024.56 1024.53 1024.50 1024.49 1024.51 1024.55 1024.64 1024.74 1024.85
1011.12 1011.66 1012.18 1012.68 1013.16 1013.63 1014.13 1014.66 1015.25 1015.90 1016.61 1017.36 1018.13 1018.90 1019.62 1020.29 1020.87 1021.37 1021.79 1022.14 1022.43 1022.69 1022.93 1023.16 1023.39 1023.63 1023.86 1024.09 1024.29 1024.47 1024.62 1024.73 1024.79 1024.83 1024.84 1024.83 1024.83 1024.83 1024.86 1024.91 1024.99 1025.09 1025.20 1025.30
1010.97 1011.56 1012.14 1012.71 1013.28 1013.84 1014.41 1015.01 1015.64 1016.32 1017.03 1017.77 1018.52 1019.25 1019.94 1020.57 1021.13 1021.62 1022.02 1022.36 1022.64 1022.88 1023.10 1023.32 1023.53 1023.74 1023.96 1024.16 1024.36 1024.53 1024.67 1024.78 1024.86 1024.91 1024.95 1024.99 1025.03 1025.08 1025.16 1025.25 1025.37 1025.49 1025.61 1025.70
1010.87 1011.50 1012.14 1012.79 1013.44 1014.10 1014.75 1015.42 1016.11 1016.81 1017.53 1018.26 1018.98 1019.68 1020.33 1020.92 1021.44 1021.88 1022.25 1022.55 1022.80 1023.01 1023.20 1023.38 1023.56 1023.74 1023.92 1024.09 1024.26 1024.41 1024.54 1024.65 1024.75 1024.83 1024.90 1024.98 1025.07 1025.18 1025.31 1025.45 1025.61 1025.76 1025.88 1025.96
1010.85 1011.51 1012.21 1012.93 1013.66 1014.39 1015.11 1015.84 1016.57 1017.30 1018.03 1018.74 1019.43 1020.08 1020.68 1021.22 1021.69 1022.08 1022.41 1022.67 1022.88 1023.05 1023.20 1023.35 1023.48 1023.62 1023.76 1023.89 1024.03 1024.15 1024.27 1024.38 1024.48 1024.58 1024.68 1024.80 1024.94 1025.11 1025.28 1025.48 1025.67 1025.84 1025.97 1026.04
1010.89 1011.59 1012.34 1013.11 1013.90 1014.68 1015.46 1016.23 1016.98 1017.72 1018.43 1019.12 1019.76 1020.37 1020.92 1021.40 1021.82 1022.17 1022.46 1022.68 1022.86 1023.00 1023.12 1023.23 1023.33 1023.42 1023.52 1023.62 1023.72 1023.82 1023.91 1024.01 1024.11 1024.22 1024.35 1024.51 1024.68 1024.89 1025.11 1025.34 1025.56 1025.74 1025.88 1025.94
1010.98 1011.71 1012.49 1013.31 1014.14 1014.96 1015.77 1016.55 1017.30 1018.02 1018.71 1019.36 1019.96 1020.51 1021.01 1021.45 1021.83 1022.15 1022.41 1022.61 1022.78 1022.90 1023.00 1023.09 1023.16 1023.23 1023.29 1023.35 1023.41 1023.48 1023.55 1023.63 1023.72 1023.84 1023.98 1024.15 1024.36 1024.59 1024.84 1025.09 1025.32 1025.52 1025.66 1025.72
1011.07 1011.84 1012.66 1013.51 1014.36 1015.20 1016.01 1016.79 1017.52 1018.21 1018.86 1019.46 1020.02 1020.52 1020.99 1021.40 1021.75 1022.06 1022.32 1022.52 1022.69 1022.82 1022.91 1022.99 1023.04 1023.09 1023.12 1023.15 1023.18 1023.21 1023.25 1023.31 1023.39 1023.50 1023.65 1023.83 1024.05 1024.29 1024.56 1024.82 1025.06 1025.26 1025.39 1025.45
1011.14 1011.95 1012.81 1013.68 1014.56 1015.40 1016.20 1016.96 1017.66 1018.31 1018.92 1019.48 1019.99 1020.47 1020.90 1021.30 1021.66 1021.97 1022.24 1022.47 1022.65 1022.80 1022.90 1022.98 1023.03 1023.05 1023.06 1023.06 1023.05 1023.05 1023.07 1023.10 1023.16 1023.27 1023.41 1023.59 1023.81 1024.06 1024.33 1024.59 1024.83 1025.02 1025.15 1025.20
1011.19 1012.05 1012.95 1013.85 1014.73 1015.57 1016.36 1017.09 1017.76 1018.37 1018.93 1019.45 1019.94 1020.40 1020.83 1021.23 1021.60 1021.93 1022.23 1022.49 1022.70 1022.87 1022.99 1023.07 1023.11 1023.12 1023.11 1023.08 1023.04 1023.01 1022.99 1023.01 1023.06 1023.15 1023.28 1023.47 1023.69 1023.94 1024.20 1024.45 1024.68 1024.87 1024.99 1025.04
1011.24 1012.15 1013.08 1014.01 1014.90 1015.73 1016.50 1017.20 1017.83 1018.41 1018.94 1019.44 1019.91 1020.36 1020.79 1021.21 1021.60 1021.97 1022.31 1022.59 1022.83 1023.02 1023.15 1023.23 1023.26 1023.25 1023.21 1023.16 1023.09 1023.03 1023.00 1023.00 1023.04 1023.12 1023.26 1023.44 1023.67 1023.92 1024.17 1024.43 1024.65 1024.83 1024.94 1025.00
1011.31 1012.27 1013.24 1014.18 1015.07 1015.89 1016.63 1017.30 1017.91 1018.45 1018.96 1019.44 1019.90 1020.36 1020.80 1021.24 1021.66 1022.06 1022.42 1022.73 1022.99 1023.19 1023.32 1023.39 1023.41 1023.38 1023.31 1023.23 1023.14 1023.06 1023.02 1023.01 1023.05 1023.14 1023.29 1023.48 1023.72 1023.97 1024.23 1024.48 1024.69 1024.87 1024.98 1025.04
1011.45 1012.44 1013.42 1014.36 1015.24 1016.04 1016.75 1017.39 1017.96 1018.49 1018.98 1019.44 1019.91 1020.37 1020.83 1021.28 1021.72 1022.14 1022.52 1022.84 1023.10 1023.30 1023.42 1023.48 1023.48 1023.42 1023.34 1023.23 1023.13 1023.05 1023.00 1023.00 1023.05 1023.16 1023.33 1023.54 1023.78 1024.05 1024.31 1024.56 1024.78 1024.95 1025.06 1025.12
1011.65 1012.65 1013.63 1014.55 1015.40 1016.16 1016.84 1017.44 1017.98 1018.48 1018.95 1019.41 1019.87 1020.34 1020.80 1021.27 1021.72 1022.15 1022.53 1022.85 1023.11 1023.29 1023.40 1023.44 1023.41 1023.34 1023.24 1023.13 1023.03 1022.96 1022.93 1022.94 1023.02 1023.16 1023.35 1023.58 1023.84 1024.12 1024.39 1024.64 1024.85 1025.02 1025.14 1025.21
1011.91 1012.89 1013.83 1014.71 1015.50 1016.21 1016.84 1017.41 1017.92 1018.39 1018.84 1019.30 1019.75 1020.22 1020.69 1021.16 1021.61 1022.03 1022.40 1022.71 1022.96 1023.12 1023.22 1023.24 1023.21 1023.13 1023.04 1022.94 1022.85 1022.80 1022.80 1022.85 1022.96 1023.12 1023.34 1023.60 1023.87 1024.16 1024.44 1024.69 1024.90 1025.07 1025.20 1025.27
1012.17 1013.11 1013.99 1014.80 1015.53 1016.18 1016.75 1017.27 1017.74 1018.19 1018.63 1019.07 1019.52 1019.99 1020.45 1020.91 1021.35 1021.76 1022.12 1022.42 1022.64 1022.80 1022.88 1022.91 1022.88 1022.82 1022.75 1022.68 1022.63 1022.62 1022.66 1022.75 1022.89 1023.09 1023.33 1023.60 1023.89 1024.18 1024.46 1024.71 1024.92 1025.09 1025.22 1025.31
1012.38 1013.25 1014.05 1014.78 1015.44 1016.02 1016.54 1017.02 1017.46 1017.88 1018.31 1018.74 1019.18 1019.64 1020.09 1020.54 1020.96 1021.36 1021.70 1021.98 1022.20 1022.35 1022.44 1022.48 1022.48 1022.46 1022.43 1022.40 1022.41 1022.45 1022.54 1022.67 1022.86 1023.08 1023.34 1023.63 1023.92 1024.20 1024.47 1024.71 1024.92 1025.09 1025.22 1025.33
1012.49 1013.27 1013.98 1014.64 1015.22 1015.74 1016.21 1016.65 1017.07 1017.48 1017.90 1018.32 1018.76 1019.20 1019.64 1020.07 1020.48 1020.85 1021.17 1021.45 1021.66 1021.82 1021.94 1022.01 1022.05 1022.08 1022.11 1022.16 1022.23 1022.33 1022.47 1022.65 1022.87 1023.12 1023.39 1023.68 1023.96 1024.23 1024.49 1024.72 1024.92 1025.09 1025.23 1025.36
1012.43 1013.13 1013.76 1014.34 1014.87 1015.35 1015.79 1016.21 1016.62 1017.02 1017.44 1017.86 1018.29 1018.72 1019.15 1019.56 1019.94 1020.30 1020.61 1020.88 1021.10 1021.28 1021.42 1021.54 1021.64 1021.73 1021.83 1021.95 1022.09 1022.26 1022.46 1022.68 1022.93 1023.20 1023.47 1023.75 1024.02 1024.27 1024.51 1024.73 1024.92 1025.10 1025.26 1025.42
Thickness
5653 5664 5669 5681 5688 5693 5690 5685 5669 5654 5644 5634 5629 5624 5619 5615 5612 5608 5605 5603 5600 5598 5596 5595 5594 5592 5590 5589 5587 5585 5584 5581 5578 5575 5572 5569 5566 5563 5560 5558 5554 5551 5547 5544
5663 5675 5681 5681 5685 5685 5680 5675 5662 5649 5633 5629 5623 5617 5611 5606 5602 5597 5594 5590 5588 5585 5583 5581 5580 5578 5576 5574 5572 5571 5569 5566 5563 5560 5558 5555 5552 5550 5547 5545 5542 5539 5535 5531
5661 5681 5680 5662 5670 5672 5667 5663 5656 5640 5626 5620 5611 5604 5600 5596 5593 5588 5584 5580 5576 5573 5571 5569 5567 5565 5563 5561 5560 5558 5555 5553 5551 5549 5546 5543 5541 5539 5536 5533 5530 5527 5522 5518
5667 5665 5643 5656 5676 5671 5658 5649 5645 5633 5621 5612 5604 5596 5591 5588 5583 5578 5574 5569 5565 5562 5559 5557 5555 5553 5552 5550 5549 5547 5544 5542 5540 5538 5535 5533 5530 5528 5525 5522 5519 5515 5511 5506
5665 5650 5644 5656 5666 5664 5649 5631 5630 5620 5609 5601 5594 5586 5576 5574 5572 5568 5563 5559 5556 5553 5550 5547 5545 5544 5542 5540 5539 5537 5534 5532 5530 5528 5526 5523 5520 5517 5514 5512 5509 5505 5501 5495
5666 5648 5634 5644 5661 5664 5648 5617 5620 5614 5604 5596 5591 5579 5565 5562 5560 5556 5552 5549 5546 5544 5541 5538 5536 5535 5533 5531 5530 5528 5526 5523 5521 5518 5516 5513 5510 5508 5505 5503 5500 5496 5491 5485
5664 5651 5640 5652 5659 5656 5624 5611 5616 5610 5602 5596 5589 5578 5564 5557 5552 5548 5545 5541 5539 5536 5533 5530 5528 5526 5524 5523 5521 5519 5517 5515 5512 5510 5507 5505 5502 5499 5497 5494 5491 5487 5482 5476
5663 5643 5628 5650 5650 5632 5620 5620 5613 5604 5596 5587 5578 5567 5558 5551 5546 5542 5539 5535 5532 5529 5525 5523 5521 5520 5517 5515 5514 5512 5510 5507 5505 5503 5501 5498 5495 5492 5490 5487 5483 5479 5474 5468
5654 5639 5640 5643 5637 5632 5626 5615 5606 5597 5588 5579 5569 5560 5553 5546 5541 5537 5533 5530 5527 5524 5521 5517 5515 5513 5510 5508 5507 5505 5502 5500 5498 5496 5494 5491 5489 5486 5483 5480 5476 5473 5468 5463
5651 5642 5641 5638 5633 5627 5620 5610 5601 5592 5583 5575 5565 5556 5549 5543 5537 5533 5529 5526 5523 5519 5516 5512 5510 5507 5505 5503 5501 5498 5496 5494 5493 5491 5488 5485 5482 5479 5476 5472 5468 5466 5463 5458
5650 5643 5638 5632 5627 5621 5613 5605 5596 5588 5579 5570 5561 5553 5546 5540 5535 5531 5527 5523 5519 5515 5511 5508 5505 5502 5500 5498 5496 5493 5491 5490 5489 5487 5485 5481 5476 5470 5467 5460 5457 5454 5453 5451
5653 5649 5640 5628 5624 5618 5607 5599 5591 5582 5573 5566 5558 5551 5545 5539 5533 5529 5524 5520 5516 5512 5508 5505 5502 5498 5496 5494 5492 5489 5487 5487 5486 5485 5482 5479 5474 5467 5459 5456 5452 5449 5446 5444
5665 5658 5645 5633 5624 5615 5604 5595 5587 5578 5570 5562 5555 5549 5543 5537 5532 5527 5522 5517 5513 5509 5506 5502 5498 5495 5493 5491 5489 5486 5485 5484 5484 5483 5481 5478 5474 5469 5462 5454 5450 5448 5447 5445
5664 5653 5638 5629 5619 5611 5602 5593 5584 5575 5567 5560 5553 5547 5541 5535 5530 5524 5519 5515 5511 5507 5503 5499 5495 5492 5490 5488 5486 5484 5483 5481 5481 5480 5479 5476 5473 5470 5466 5462 5457 5453 5449 5447
5659 5650 5638 5628 5617 5607 5598 5589 5579 5571 5563 5557 5551 5545 5538 5532 5527 5522 5517 5513 5508 5504 5501 5497 5493 5490 5487 5486 5484 5482 5482 5480 5479 5478 5477 5474 5472 5469 5466 5463 5460 5457 5454 5451
5656 5647 5636 5624 5613 5604 5595 5586 5577 5569 5563 5555 5549 5543 5537 5531 5525 5520 5515 5511 5506 5502 5498 5494 5491 5488 5487 5484 5482 5480 5478 5474 5475 5476 5475 5473 5470 5467 5465 5462 5460 5458 5456 5454
5651 5640 5631 5621 5612 5603 5595 5586 5578 5570 5563 5555 5549 5543 5536 5530 5523 5518 5514 5509 5504 5500 5496 5492 5489 5487 5486 5484 5482 5482 5481 5476 5472 5474 5473 5471 5469 5466 5464 5462 5460 5458 5456 5452
5655 5645 5635 5625 5614 5604 5595 5587 5579 5571 5563 5556 5549 5543 5536 5529 5523 5518 5514 5508 5503 5499 5494 5490 5486 5484 5484 5482 5480 5481 5482 5479 5477 5475 5472 5470 5467 5465 5463 5461 5460 5458 5457 5455
5656 5645 5636 5625 5616 5606 5596 5587 5578 5571 5563 5556 5549 5542 5537 5531 5525 5520 5515 5510 5505 5499 5493 5487 5481 5480 5481 5479 5476 5479 5480 5479 5476 5473 5471 5465 5466 5465 5463 5461 5460 5458 5457 5456
5654 5645 5635 5625 5616 5606 5596 5587 5579 5570 5563 5556 5550 5543 5537 5532 5527 5521 5515 5511 5505 5499 5492 5487 5483 5482 5481 5479 5475 5479 5481 5479 5476 5473 5470 5468 5466 5463 5462 5461 5459 5458 5456 5455
5651 5643 5633 5624 5615 5606 5597 5588 5578 5570 5563 5557 5550 5544 5539 5533 5529 5524 5517 5512 5504 5499 5494 5487 5484 5484 5481 5478 5475 5480 5481 5478 5475 5472 5470 5467 5465 5463 5461 5459 5458 5456 5455 5454
5649 5641 5632 5624 5614 5605 5596 5588 5579 5571 5563 5557 5552 5547 5540 5534 5530 5525 5519 5514 5506 5499 5495 5494 5489 5482 5480 5477 5480 5484 5482 5478 5475 5472 5469 5467 5464 5462 5460 5458 5456 5455 5454 5453
5647 5640 5632 5622 5613 5604 5595 5587 5580 5572 5564 5559 5554 5548 5542 5538 5535 5529 5520 5515 5511 5501 5499 5495 5488 5484 5480 5480 5484 5486 5483 5478 5475 5473 5470 5467 5465 5462 5459 5457 5455 5454 5453 5453
5645 5637 5630 5621 5612 5603 5594 5587 5580 5573 5566 5561 5556 5551 5546 5542 5538 5535 5526 5515 5511 5504 5503 5494 5491 5487 5483 5485 5488 5488 5485 5480 5477 5475 5472 5469 5466 5463 5460 5458 5456 5455 5454 5453
5642 5635 5627 5619 5609 5602 5595 5588 5580 5573 5568 5563 5559 5553 5550 5547 5543 5537 5528 5521 5513 5508 5505 5498 5494 5491 5489 5491 5494 5491 5487 5482 5479 5476 5473 5470 5467 5464 5461 5459 5458 5457 5455 5454
5638 5631 5624 5617 5611 5604 5598 5590 5583 5576 5572 5566 5562 5557 5554 5550 5546 5538 5531 5526 5521 5513 5511 5507 5502 5497 5498 5499 5497 5492 5486 5482 5480 5478 5475 5472 5470 5467 5464 5462 5459 5458 5456 5454
5633 5628 5621 5616 5610 5606 5601 5593 5587 5581 5577 5571 5566 5561 5557 5553 5548 5542 5537 5533 5528 5523 5522 5519 5514 5511 5509 5506 5500 5495 5491 5488 5485 5481 5478 5475 5472 5470 5467 5464 5462 5460 5458 5457